Regional Weather Roundup
Issued by NWS Sterling, VA

Home | Current Version | Previous Version | Graphics & Text | Print | Product List | Glossary On
Versions: 1 2 3 4 5 6 7 8 9 10 11 12 13 14 15 16 17 18 19 20 21 22 23 24 25 26 27 28 29 30 31 32 33 34 35 36 37 38 39 40 41 42 43 44 45 46 47 48 49 50
908
ASUS41 KLWX 271811
RWRLWX

REGIONAL WEATHER ROUNDUP
NATIONAL WEATHER SERVICE BALTIMORE MD/WASHINGTON DC
200 PM EDT THU JUL 27 2017

Note: "FAIR" indicates few or no clouds below 12,000 feet
with no significant weather and/or obstructions to visibility.
 TC=TEMPERATURE CELSIUS

 * =Non NWS site. Station does not report precipitation (e.g. rain,
    snow, etc.), thunder, or fog.

DCZ001-MDZ009-015-VAZ040>042-051-053>054-271900-
WASHINGTON METRO

CITY           SKY/WX    TMP DP  RH WIND       PRES   REMARKS
WASHINGTON NAT CLOUDY    84  73  69 SW12      29.93F HX  90
DULLES         CLOUDY    83  71  67 SW6       29.93F
ANDREWS AFB    CLOUDY    82  71  71 S10       29.93F
FT BELVOIR     CLOUDY    84  71  65 S3        29.93F
QUANTICO       CLOUDY    85  76  74 S10       29.93F HX  94
COLLEGE PARK*  CLOUDY    82  70  67 S5        29.93F
LEESBURG*      PTSUNNY   84  73  70 S5        29.94F HX  91
MANASSAS*      CLOUDY    84  74  71 SE8       29.93F HX  91

$$

MDZ006>007-011-014-271900-
BALTIMORE METRO

CITY           SKY/WX    TMP DP  RH WIND       PRES   REMARKS
BWI AIRPORT    CLOUDY    83  72  69 SW6       29.92F
MD SCIENCE CTR   N/A     84  72  67 MISG      29.92F
MARTIN STATE   CLOUDY    81  75  83 SE6       29.94F
ANNAPOLIS      CLOUDY    81  75  82 S9        29.93F
FORT MEADE*    CLOUDY    81  72  74 S5        29.95F

$$

MDZ012-015-019>023-271900-
MARYLAND EASTERN SHORE

CITY           SKY/WX    TMP DP  RH WIND       PRES   REMARKS
OCEAN CITY     MOSUNNY   76  70  82 S9        29.97F
SALISBURY      CLOUDY    82  72  71 S9        29.95F
BAY BRIDGE AP* MOSUNNY   82  72  69 S9        29.94F
CAMBRIDGE*     SUNNY     81  72  74 S7        29.94F
EASTON*        MOSUNNY   84  72  65 S8        29.97F

$$

MDZ017>025-271900-
SOUTHERN MARYLAND

CITY           SKY/WX    TMP DP  RH WIND       PRES   REMARKS
PATUXENT RIVER CLOUDY    83  73  72 S10       29.93F
ST INIGOES     CLOUDY    85  74  69 S8        29.93F HX  92
LEONARDTOWN*   CLOUDY    82  70  65 S6        29.95F

$$

MDZ003>005-271900-
NORTH CENTRAL MARYLAND

CITY           SKY/WX    TMP DP  RH WIND       PRES   REMARKS
FREDERICK*     PTSUNNY   82  70  65 S6        29.97F
HAGERSTOWN APT CLOUDY    82  69  64 S6        29.94F
WESTMINSTER*   CLOUDY    81  72  74 S6        29.96F

$$

MDZ501>502-271900-
WESTERN MARYLAND

CITY           SKY/WX    TMP DP  RH WIND       PRES   REMARKS
OAKLAND*       CLOUDY    73  61  64 W7        30.02F
CUMBERLAND*    CLOUDY    81  70  69 CALM      29.97F

$$

VAZ025>031-271900-
SHENANDOAH VALLEY

CITY           SKY/WX    TMP DP  RH WIND       PRES   REMARKS
WINCHESTER*    CLOUDY    82  66  57 CALM      29.93F
FRONT ROYAL*   CLOUDY    86  64  48 CALM      29.93F
LURAY*         MOSUNNY   86  68  54 SW9       29.96S
NEW MARKET*    CLOUDY    85  68  56 S5        29.94F
STAUNTON*      CLOUDY    83  67  58 SW10      29.99F
WAYNESBORO*    CLOUDY    83  69  62 SW8       30.00F

$$

WVZ021-048>050-054>055-271900-
EASTERN WEST VIRGINIA PANHANDLE

CITY           SKY/WX    TMP DP  RH WIND       PRES   REMARKS
MARTINSBURG    CLOUDY    82  70  66 SE6       29.92F
PETERSBURG*    CLOUDY    89  69  52 CALM      29.93F HX  93

$$

VAZ036>039-050-271900-
CENTRAL FOOTHILLS

CITY           SKY/WX    TMP DP  RH WIND       PRES   REMARKS
CHARLOTTESVILL CLOUDY    87  70  56 S8        29.94F HX  92
CULPEPER*      CLOUDY    85  73  65 SW6       29.94F HX  92
ORANGE*        MOSUNNY   86  72  62 SW10G16   29.94F HX  92
GORDONSVILLE*  PTSUNNY   86  72  62 SW7       29.93F HX  93
WARRENTON*     CLOUDY    85  68  56 S5        29.93F

$$

VAZ055>057-271900-
NORTH AND CENTRAL PIEDMONT

CITY           SKY/WX    TMP DP  RH WIND       PRES   REMARKS
FREDERICKSBRG* CLOUDY    85  74  69 S6        29.92F HX  92
STAFFORD*      MOSUNNY   84  73  69 SW6       29.97F HX  90

$$

NCZ024-NYZ072-PAZ021-071-VAZ022-071-271900-
OTHER REGIONAL OBSERVATIONS

CITY           SKY/WX    TMP DP  RH WIND       PRES   REMARKS
NEW YORK CITY  CLOUDY    77  67  71 W5        29.98F
PHILADELPHIA   CLOUDY    78  69  73 S6        29.95F
PITTSBURGH     CLOUDY    80  62  54 W7        29.95F
ROANOKE        CLOUDY    85  70  60 W8        30.01S
RICHMOND       CLOUDY    87  70  56 S16       29.94F HX  92
RALEIGH        PTSUNNY   91  70  49 W10       30.00F HX  96

$$

ANZ530>537-271900-
MARINE OBSERVATIONS

STATION/POSITION TIME  TEMP    WIND        PRES
                       AIR SEA DIR/SP/G
                 (UTC) (F)     (DEG/KT/KT) (MB)
THOMAS PT LIGHT  1800   79 82  170/ 13/ 15   N/A
BALT KEY BRIDGE  1748   80     120/  7/  9 1013.1F
COVE POINT       1748   80     190/ 10/ 13 1014.3F
LEWISETTA        1748   83 83  190/  7/ 10 1013.6F
SOLOMONS ISLAND  1742   82 83  200/  9/ 11   N/A
PINEY POINT      1748          200/  8/  9   N/A

$$





USA.gov is the U.S. government's official web portal to all federal, state and local government web resources and services.